Location: Drummondville
(45.8830°N, 72.4830°W)
Time: 17:56:36
(UTC-04:00)

Vanguard 1 Rocket - All Passes

Search period start: 23 June 2018 00:00
Search period end: 03 July 2018 00:00
Orbit: 653 x 4224 km, 34.3° (Epoch: 22 June)

Date Brightness Start Highest point End Pass type
(mag) Time Alt. Az. Time Alt. Az. Time Alt. Az.
23 Jun - 17:15:27 10° SSW 17:18:36 19° SSE 17:22:15 10° ESE daylight
23 Jun - 19:38:23 10° WSW 19:42:42 26° S 19:48:58 10° SE daylight
23 Jun - 22:03:07 10° WSW 22:07:52 17° SSW 22:14:27 10° SSE visible
24 Jun - 16:06:06 10° S 16:08:11 13° SSE 16:10:18 10° SE daylight
24 Jun - 18:28:19 10° SW 18:32:05 24° S 18:36:59 10° ESE daylight
24 Jun - 20:52:16 10° WSW 20:56:40 20° SSW 21:02:57 10° SSE daylight
25 Jun - 17:18:18 10° SW 17:21:36 20° S 17:25:20 10° ESE daylight
25 Jun - 19:41:51 10° WSW 19:45:47 22° S 19:51:13 10° SE daylight
25 Jun - 22:08:13 10° SW 22:10:58 12° SSW 22:14:12 10° S visible
26 Jun - 16:08:22 10° SSW 16:11:10 16° SSE 16:13:57 10° SE daylight
26 Jun - 18:31:34 10° SW 18:35:08 22° S 18:39:38 10° SE daylight
26 Jun - 20:56:23 10° SW 20:59:46 15° SSW 21:04:07 10° SSE daylight
27 Jun - 14:58:44 10° S 15:00:38 12° SSE 15:02:24 10° SE daylight
27 Jun - 17:21:18 10° SW 17:24:38 21° S 17:28:20 10° SE daylight
27 Jun - 19:45:31 10° SW 19:48:52 17° S 19:53:11 10° SSE daylight
28 Jun - 16:10:56 10° SW 16:14:11 18° S 16:17:18 10° SE daylight
28 Jun - 18:34:57 10° SW 18:38:12 19° S 18:42:08 10° SE daylight
29 Jun - 15:00:31 10° SSW 15:03:40 16° S 15:06:25 10° SE daylight
29 Jun - 17:24:25 10° SW 17:27:41 20° S 17:31:12 10° SE daylight
29 Jun - 19:49:42 10° SW 19:51:57 13° SSW 19:54:34 10° S daylight
30 Jun - 13:50:13 10° SSW 13:52:59 13° SSE 13:55:21 10° SE daylight
30 Jun - 16:13:43 10° SW 16:17:13 20° S 16:20:30 10° SE daylight
30 Jun - 18:38:33 10° SW 18:41:15 15° SSW 18:44:21 10° SSE daylight
01 Jul - 12:41:11 10° S 12:42:05 10° SSE 12:42:56 10° SSE daylight
01 Jul - 15:02:48 10° SW 15:06:43 19° S 15:09:58 10° SE daylight
01 Jul - 17:27:39 10° SW 17:30:43 18° S 17:33:57 10° SE daylight
02 Jul - 13:51:43 10° SSW 13:56:03 18° S 13:59:26 10° SE daylight
02 Jul - 16:16:38 10° SW 16:20:16 21° S 16:23:35 10° SE daylight
02 Jul - 18:42:43 10° SW 18:44:17 11° SSW 18:45:57 10° S daylight
